Location: Unspecified
(0.0000°N, 1.0000°E)
Time: 10:17:04
(UTC+02:00)

Amateur Radio Satellites - All Passes

Search period start: 28 July 2014 09:47
Search period end: 29 July 2014 09:47
Location: Unspecified, 0.0000°N, 1.0000°E

Satellite Date Start Highest point End Downlink Frequencies (MHz)
Time Altitude Azimuth
HO-68 28 Jul 10:08:40 10:15:18 43° 105° (ESE) 10:21:57 435.675 MHz FM
MaSat-1 28 Jul 10:18:25 10:22:04 23° 256° (WSW) 10:25:22 437.345 MHz
UKube-1 28 Jul 10:40:24 10:44:37 53° 102° (ESE) 10:48:51 145.840 MHz, 145.915 MHz
ISS 28 Jul 10:56:07 10:59:11 34° 235° (SW) 11:02:15 145.800 FM
Oscar 11 28 Jul 11:26:39 11:30:59 79° 282° (WNW) 11:35:21 145.825 FM, Beacon 2401.500 USB
SO-50 28 Jul 11:43:52 11:46:55 18° 112° (ESE) 11:49:58 436.795 FM
FUNcube-1 28 Jul 11:45:04 11:49:10 49° 102° (ESE) 11:53:24 145.950 - 145.970 MHz USB
PCSat 28 Jul 11:47:52 11:50:43 14° 70° (ENE) 11:53:34 145.825 MHz
HO-68 28 Jul 11:57:43 12:02:40 21° 285° (WNW) 12:07:40 435.675 MHz FM
PANSAT 28 Jul 12:37:52 12:40:14 16° 28° (NNE) 12:42:37 not established
Sapphire 28 Jul 12:54:59 13:00:23 83° 71° (ENE) 13:05:48 437.095 MHz 1200 baud AX-25 AFSK
RS-15 28 Jul 12:55:32 13:06:45 52° 111° (ESE) 13:17:24 29.354 - 29.394 USB, Beacon 29.352 USB
SO-50 28 Jul 13:24:01 13:27:13 20° 292° (WNW) 13:30:24 436.795 FM
PCSat 28 Jul 13:28:57 13:33:52 36° 251° (WSW) 13:38:48 145.825 MHz
UOSAT-12 28 Jul 13:49:28 13:53:13 27° 112° (ESE) 13:57:01 437.025 FM, 437.400 FM
Oscar 16 28 Jul 14:16:20 14:19:47 18° 77° (ENE) 14:23:13 437.025 USB, Beacon 2401.1428
PANSAT 28 Jul 14:16:35 14:20:25 76° 210° (SSW) 14:24:15 not established
ITAMSAT 1 28 Jul 14:37:48 14:38:43 10° 77° (ENE) 14:39:37 435.822 SSB
AO-27 28 Jul 14:54:00 14:57:38 19° 77° (ENE) 15:01:16 436.795 MHz FM
Uribyol 2 28 Jul 14:54:34 14:58:22 21° 77° (ENE) 15:02:10 436.500 FM
RS-15 28 Jul 15:09:33 15:18:38 27° 291° (WNW) 15:27:30 29.354 - 29.394 USB, Beacon 29.352 USB
Oscar 19 28 Jul 15:25:37 15:30:41 63° 258° (WSW) 15:35:43 437.125 CW, 437.150 USB
UOSAT-12 28 Jul 15:30:50 15:33:07 14° 293° (WNW) 15:35:25 437.025 FM, 437.400 FM
AO-Echo 28 Jul 15:48:30 15:53:40 86° 258° (WSW) 15:58:56 ?
JAS-1B 28 Jul 15:51:33 15:58:43 50° 75° (ENE) 16:07:08 435.800 - 435.900 CW/SSB
Oscar 16 28 Jul 15:54:37 15:58:52 26° 257° (WSW) 16:03:06 437.025 USB, Beacon 2401.1428
PANSAT 28 Jul 15:59:10 16:00:39 12° 207° (SSW) 16:02:07 not established
ITAMSAT 1 28 Jul 16:12:56 16:17:55 46° 257° (WSW) 16:22:53 435.822 SSB
TMSAT-1 28 Jul 16:25:41 16:30:50 52° 78° (ENE) 16:35:58 436.925 FM
AO-27 28 Jul 16:32:33 16:36:53 27° 257° (WSW) 16:41:12 436.795 MHz FM
Uribyol 2 28 Jul 16:33:23 16:37:34 25° 257° (WSW) 16:41:45 436.500 FM
AO-7 28 Jul 16:48:43 16:54:45 22° 73° (ENE) 17:00:45 29.400 - 29.500 MHz
Gurwin Techsat 1B 28 Jul 16:49:28 16:54:39 53° 258° (WSW) 16:59:48 435.225 FM
AO-40 28 Jul 17:05:45 17:12:13 54° 6° (N) 17:18:48 Beacon 2401.320
OPAL 28 Jul 17:17:18 17:22:14 48° 104° (ESE) 17:27:14 ?
KITSAT 1 28 Jul 17:30:07 17:37:09 34° 70° (ENE) 17:44:10 435.175 FM
JAS-1B 28 Jul 17:44:08 17:49:12 20° 260° (W) 17:54:50 435.800 - 435.900 CW/SSB
Uosat F 28 Jul 17:45:07 17:50:10 74° 77° (ENE) 17:55:11 435.120 FM
JAS-2 28 Jul 18:36:50 18:41:43 18° 76° (ENE) 18:46:37 435.800 - 435.900 CW/SSB, 435.910 FM
AO-7 28 Jul 18:39:12 18:47:08 49° 254° (WSW) 18:55:05 29.400 - 29.500 MHz
Hamsat 28 Jul 19:03:11 19:06:43 27° 79° (ENE) 19:10:13 145.90 MHz
Saudisat 1A 28 Jul 19:20:36 19:24:54 60° 68° (ENE) 19:29:12 436.775 MHz
KITSAT 1 28 Jul 19:25:24 19:32:12 31° 250° (WSW) 19:39:03 435.175 FM
STRAND 1 28 Jul 19:40:04 19:44:12 25° 103° (ESE) 19:48:19 ?
SO-67 28 Jul 20:00:33 20:02:13 13° 79° (E) 20:03:54 435.3500 MHz FM
JAS-2 28 Jul 20:18:47 20:26:17 58° 257° (WSW) 20:33:57 435.800 - 435.900 CW/SSB, 435.910 FM
Hamsat 28 Jul 20:41:16 20:42:25 11° 258° (WSW) 20:43:34 145.90 MHz
STRAND 1 28 Jul 21:19:37 21:23:07 19° 283° (WNW) 21:26:38 ?
Oscar 10/S400 28 Jul 21:27:02 21:46:23 55° 338° (NNW) 22:17:39 145.825 - 145.975 CW/USB, Beacon 145.810 USB
SO-67 28 Jul 21:33:09 21:35:02 14° 259° (W) 21:36:54 435.3500 MHz FM
HO-68 28 Jul 22:00:33 22:06:59 36° 75° (ENE) 22:13:22 435.675 MHz FM
MaSat-1 28 Jul 22:11:32 22:13:37 16° 291° (WNW) 22:15:54 437.345 MHz
ISS 28 Jul 22:31:35 22:34:50 55° 305° (NW) 22:38:04 145.800 FM
UKube-1 28 Jul 22:50:09 22:54:32 76° 78° (ENE) 22:58:53 145.840 MHz, 145.915 MHz
Oscar 11 28 Jul 23:36:05 23:40:20 56° 258° (WSW) 23:44:32 145.825 FM, Beacon 2401.500 USB
HO-68 28 Jul 23:48:44 23:54:21 25° 255° (WSW) 23:59:57 435.675 MHz FM
Sapphire 28 Jul 23:50:13 23:53:38 17° 110° (ESE) 23:57:02 437.095 MHz 1200 baud AX-25 AFSK
SO-50 28 Jul 23:55:47 00:00:14 37° 68° (ENE) 00:04:42 436.795 FM
FUNcube-1 28 Jul 23:55:53 00:00:24 74° 79° (ENE) 00:04:46 145.950 - 145.970 MHz USB
PCSat 29 Jul 00:21:57 00:27:04 45° 109° (ESE) 00:32:11 145.825 MHz
PANSAT 29 Jul 00:25:16 00:27:48 17° 152° (SSE) 00:30:20 not established
RS-15 29 Jul 00:37:03 00:47:35 43° 70° (ENE) 00:58:31 29.354 - 29.394 USB, Beacon 29.352 USB
Sapphire 29 Jul 01:32:04 01:36:47 31° 289° (WNW) 01:41:30 437.095 MHz 1200 baud AX-25 AFSK
SO-50 29 Jul 01:38:47 01:40:35 12° 247° (WSW) 01:42:24 436.795 FM
UOSAT-12 29 Jul 01:59:14 02:03:41 48° 68° (ENE) 02:08:03 437.025 FM, 437.400 FM
PANSAT 29 Jul 02:04:07 02:07:58 72° 330° (NNW) 02:11:50 not established
PCSat 29 Jul 02:08:37 02:10:14 11° 290° (WNW) 02:11:52 145.825 MHz
Oscar 19 29 Jul 02:21:33 02:25:20 21° 103° (ESE) 02:29:07 437.125 CW, 437.150 USB
AO-Echo 29 Jul 02:43:04 02:44:42 12° 102° (ESE) 02:46:20 ?
Oscar 16 29 Jul 02:48:38 02:53:35 48° 103° (ESE) 02:58:35 437.025 USB, Beacon 2401.1428
RS-15 29 Jul 02:49:33 02:59:35 35° 248° (WSW) 03:10:06 29.354 - 29.394 USB, Beacon 29.352 USB
ITAMSAT 1 29 Jul 03:09:20 03:13:44 29° 103° (ESE) 03:18:08 435.822 SSB
AO-27 29 Jul 03:27:51 03:32:50 50° 103° (ESE) 03:37:50 436.795 MHz FM
Uribyol 2 29 Jul 03:28:13 03:33:14 54° 103° (ESE) 03:38:16 436.500 FM
PANSAT 29 Jul 03:46:55 03:48:13 11° 333° (NNW) 03:49:31 not established
Gurwin Techsat 1B 29 Jul 03:48:58 03:53:26 28° 103° (ESE) 03:57:55 435.225 FM
Oscar 10/S400 29 Jul 03:51:34 06:01:07 18° 110° (ESE) 07:24:52 145.825 - 145.975 CW/USB, Beacon 145.810 USB
Oscar 19 29 Jul 04:00:16 04:04:23 24° 283° (WNW) 04:08:33 437.125 CW, 437.150 USB
JAS-1B 29 Jul 04:03:52 04:11:43 62° 102° (ESE) 04:18:15 435.800 - 435.900 CW/SSB
AO-Echo 29 Jul 04:18:54 04:23:14 34° 283° (WNW) 04:27:31 ?
ITAMSAT 1 29 Jul 04:49:41 04:52:57 17° 283° (WNW) 04:56:14 435.822 SSB
TMSAT-1 29 Jul 05:03:49 05:08:57 54° 282° (WNW) 05:14:06 436.925 FM
AO-7 29 Jul 05:13:40 05:21:04 37° 106° (ESE) 05:28:27 29.400 - 29.500 MHz
Gurwin Techsat 1B 29 Jul 05:29:35 05:33:08 18° 283° (WNW) 05:36:42 435.225 FM
KITSAT 1 29 Jul 05:37:37 05:45:13 44° 110° (ESE) 05:52:45 435.175 FM
OPAL 29 Jul 05:49:14 05:54:13 69° 256° (WSW) 05:59:08 ?
JAS-1B 29 Jul 05:58:11 06:01:27 13° 289° (WNW) 06:04:33 435.800 - 435.900 CW/SSB
Uosat F 29 Jul 06:15:07 06:19:53 46° 283° (WNW) 06:24:39 435.120 FM
AO-7 29 Jul 07:06:38 07:13:29 30° 286° (WNW) 07:20:23 29.400 - 29.500 MHz
Hamsat 29 Jul 07:09:58 07:13:56 35° 102° (ESE) 07:17:55 145.90 MHz
Saudisat 1A 29 Jul 07:26:42 07:31:06 85° 292° (WNW) 07:35:30 436.775 MHz
KITSAT 1 29 Jul 07:34:12 07:40:17 23° 291° (WNW) 07:46:23 435.175 FM
JAS-2 29 Jul 07:53:56 07:59:12 84° 102° (ESE) 08:04:23 435.800 - 435.900 CW/SSB, 435.910 FM
STRAND 1 29 Jul 08:11:55 08:17:01 65° 77° (ENE) 08:22:07 ?
MaSat-1 29 Jul 08:28:22 08:31:18 16° 70° (ENE) 08:34:02 437.345 MHz
SO-67 29 Jul 09:17:01 09:19:53 24° 281° (W) 09:22:46 435.3500 MHz FM
